This demonstration page uses our WeatherBlox Daily Observations layout. Learn more.

Left ArrowRight Arrow

34.16533, -84.80231

Hourly Observations for April 19, 2020

Temp ( °F °C ) Dew Point ( °F °C ) Humidity (%) Winds ( mph kmh ) Pressure ( in mb ) Visibility ( mi km ) Precip ( " mm )
12:53 am 00:53 Clear 43 6.1 41 5 93 93 Calm 30.01 1016 10 16 0.00 0.00
1:53 am 01:53 Clear 44 6.7 41 5 89 89 Calm 30.01 1016 10 16 0.00 0.00
2:53 am 02:53 Clear 43 6.1 40 4.4 89 89 Calm 29.97 1015 10 16 0.00 0.00
3:53 am 03:53 Clear 42 5.6 39 3.9 89 89 Calm 29.93 1014 10 16 0.00 0.00
4:53 am 04:53 Clear 44 6.7 40 4.4 85 85 Calm 29.91 1013 10 16 0.00 0.00
5:53 am 05:53 Clear 44 6.7 42 5.6 93 93 Calm 29.91 1013 10 16 0.00 0.00
6:53 am 06:53 Clear 46 7.8 43 6.1 89 89 Calm 29.91 1013 10 16 0.00 0.00
7:53 am 07:53 Sunny 48 8.9 43 6.1 83 83 Calm 29.91 1013 10 16 0.00 0.00
8:50 am 08:50 Cloudy with Nearby Thunderstorms 48 9 45 7 87 87 Calm 30.01 1016 3 4 0.05 1.27
8:53 am 08:53 Cloudy with Nearby Thunderstorms 48 8.9 45 7.2 89 89 SSE 5 7 29.98 1015 3 4 0.06 1.52
9:02 am 09:02 Cloudy with Heavy Rain 48 8.9 44 6.7 86 86 E 3 6 29.99 1016 3 5 0.06 1.52
9:53 am 09:53 Cloudy with Light Rain 49 9.4 45 7.2 86 86 Calm 29.97 1015 8 13 0.08 2.03
10:11 am 10:11 Cloudy with Rain 49 9.4 46 7.8 90 90 Calm 30.04 1017 3 4 0.04 1.02
10:32 am 10:32 Cloudy with Rain 49 9.4 46 7.8 90 90 NNE 3 6 30.02 1017 4 6 0.11 2.79
10:53 am 10:53 Cloudy with Rain 49 9.4 46 7.8 90 90 E 3 6 30.01 1016 4 6 0.17 4.32
11:53 am 11:53 Mostly Cloudy 50 10 47 8.3 89 89 ESE 9 15 29.93 1014 10 16 0.05 1.27
12:53 pm 12:53 Partly Cloudy 54 12.2 48 8.9 80 80 ESE 8 13 29.93 1014 10 16 0.00 0.00
1:41 pm 13:41 Mostly Cloudy 57 13.9 50 10 78 78 VRB 7 11 29.93 1014 10 16 0.00 0.00
1:53 pm 13:53 Mostly Cloudy 58 14.4 49 9.4 72 72 VRB 5 7 29.89 1012 10 16 0.00 0.00
2:35 pm 14:35 Partly Cloudy 59 15 50 10 72 72 E 8 13 29.88 1012 10 16 0.00 0.00
2:53 pm 14:53 Partly Cloudy 61 16.1 51 10.6 70 70 E 8 13 29.83 1010 10 16 0.00 0.00
3:53 pm 15:53 Cloudy 60 15.6 51 10.6 72 72 E 3 6 29.82 1010 10 16 0.00 0.00
4:01 pm 16:01 Cloudy 60 15.6 52 11.1 75 75 VRB 3 6 29.83 1010 10 16 0.00 0.00
4:53 pm 16:53 Cloudy 59 15 53 11.7 81 81 VRB 3 6 29.80 1009 10 16 0.00 0.00
5:53 pm 17:53 Cloudy 58 14.4 53 11.7 84 84 VRB 5 7 29.80 1009 10 16 0.00 0.00
6:25 pm 18:25 Cloudy 57 13.9 53 11.7 87 87 E 5 7 29.79 1009 10 16 0.00 0.00
6:43 pm 18:43 Cloudy with Light Rain 56 13.3 52 11.1 87 87 E 3 6 29.79 1009 10 16 0.00 0.00
6:53 pm 18:53 Cloudy with Light Rain 56 13.3 52 11.1 87 87 Calm 29.78 1008 10 16 0.01 0.25
7:53 pm 19:53 Cloudy with Light Rain 55 12.8 52 11.1 90 90 Calm 29.80 1009 9 14 0.05 1.27
8:53 pm 20:53 Cloudy with Light Rain 54 12.2 52 11.1 93 93 SE 3 6 29.76 1008 6 10 0.13 3.30
9:04 pm 21:04 Cloudy with Light Rain 54 12.2 52 11.1 93 93 SE 3 6 29.78 1009 8 13 0.01 0.25
9:30 pm 21:30 Cloudy with Nearby Thunderstorms 54 12.2 52 11.1 93 93 E 3 6 29.75 1008 6 10 0.06 1.52
9:39 pm 21:39 Cloudy with Light Rain 54 12.2 52 11.1 93 93 ENE 3 6 29.75 1008 6 10 0.08 2.03
9:53 pm 21:53 Cloudy with Rain 54 12.2 52 11.1 93 93 E 5 7 29.73 1007 5 8 0.13 3.30
10:03 pm 22:03 Cloudy with Rain 54 12.2 52 11.1 93 93 E 3 6 29.75 1008 5 8 0.03 0.76
10:53 pm 22:53 Cloudy with Light Rain 54 12.2 52 11.1 93 93 SE 3 6 29.72 1007 10 16 0.08 2.03
11:11 pm 23:11 Cloudy with Light Rain 54 12.2 52 11.1 93 93 VRB 7 11 29.77 1008 7 11 0.03 0.76
11:48 pm 23:48 Cloudy with Light Rain 54 12 52 11 94 94 SE 5 7 29.73 1007 7 11 0.13 3.30
11:53 pm 23:53 Cloudy with Light Rain 54 12.2 52 11.1 93 93 ESE 6 9 29.70 1006 7 11 0.14 3.56

Powered by AerisWeather